Back to catalog

CZ-6A DEB

AlivePO
NORAD 61361·DEBRIS·🇨🇳 China

Launched Aug 6, 2024 from Taiyuan Satellite Launch Center

Loading…

Next Passes (next 24 hours)

TLE

FreshSource: Space-Track

Epoch: Sep 14, 2026, 08:05 UTC

1 61361U 24140WA  26257.33695745  .00000752  00000-0  16531-3 0  9995
2 61361  89.0320 263.3240 0106449 329.7019  29.8061 14.53061823107508

Track CZ-6A DEB in real time with AllMySat

Download on the App Store